Погода в Оливе

Испания     38°55′13″N   0°07′04″E
темп.,
°C
ветер,
м/с
пор.,
м/с
влажн.,
%
обл.,
%
осадки,
мм/ч
давл.,
гПа
погр.,
м
24 сентября, пт
пт2423:00+24св111284100 0.6 1017826
02:00+23св101082100 1.0 1016736
05:00+23ссв8985100 0.9 1015679
08:00+23с8988100 2.3 1015606
11:00+23ссв7787100 0.9 1016567
14:00+23с998892 1.6 1016622
17:00+23с8887100 0.3 1015638
20:00+24с6685100 0.8 1015681
25 сентября, сб
сб2523:00+23сз5685100 0.3 1017563
02:00+23сз4584100 0.3 1016539
05:00+23ссз3483100 0.1 1014305
08:00+22сз448572 0.1 1015337
11:00+23сз12800 0.0 1017187
14:00+23св22760 0.0 1017151
17:00+24вюв33758 0.0 1015189
20:00+25юв55812 0.0 1015113
26 сентября, вс
вс2623:00+24ююз44815 0.3 101749
02:00+25з69680 1.1 1018209
05:00+24з67590 0.0 1017227
08:00+23з68580 0.0 1018369
11:00+24з67570 0.0 1020255
14:00+26зсз44525 0.0 101969
17:00+26юв88635 0.0 1018248
20:00+25ююв676598 0.0 1018117
27 сентября, пн
пн2723:00+25юз445897 0.0 101941
02:00+24зсз4567100 0.0 1020161
05:00+23зсз3462100 0.0 1019138
08:00+23зсз3357100 0.0 1020137
11:00+24ссз225453 0.0 1021126
14:00+24св225647 0.0 102189
17:00+25всв3361100 0.0 1021136
20:00+24вюв117287 0.0 102112
28 сентября, вт
вт2823:00+24з11709 0.0 102211
02:00+23зсз2271100 0.0 1022164
05:00+22зсз3372100 0.0 1021171
08:00+22з2267100 0.0 1021153
11:00+23ссз116586 0.0 1022152
14:00+24вюв3364100 0.0 1021223
17:00+24вюв5570100 0.0 1019165
20:00+24ююв67710 0.0 1019164